Location: Newark
(55.5030°N, 22.7200°E)
Time: 21:01:51
(UTC+00:00)

SR - All Passes

Search period start: 25 May 2020 00:00
Search period end: 04 June 2020 00:00
Orbit: 581 x 874 km, 66.7° (Epoch: 24 May)

Date Brightness Start Highest point End Pass type
(mag) Time Alt. Az. Time Alt. Az. Time Alt. Az.
25 May - 00:32:51 10° WNW 00:36:03 20° WSW 00:39:09 10° SSW visible
25 May - 15:08:03 10° SSW 15:13:06 47° ESE 15:17:47 10° NE daylight
25 May - 16:50:14 10° WSW 16:55:14 48° NW 16:59:50 10° NE daylight
25 May - 18:34:21 10° WNW 18:38:17 23° NNW 18:41:59 10° NE daylight
25 May - 20:17:59 10° NW 20:21:46 23° NNE 20:25:20 10° ENE visible
25 May - 22:00:19 10° NW 22:04:48 50° NE 22:09:00 10° ESE visible
25 May - 23:42:38 10° NW 23:46:42 35° WSW 23:50:34 10° S visible
26 May - 14:19:09 10° S 14:23:37 28° ESE 14:27:48 10° ENE daylight
26 May - 16:00:11 10° SW 16:05:23 72° NW 16:10:11 10° NE daylight
26 May - 17:43:52 10° W 17:48:09 27° NNW 17:52:09 10° NE daylight
26 May - 19:27:56 10° NW 19:31:34 21° N 19:35:00 10° NE daylight
26 May - 21:10:36 10° NW 21:14:51 35° NNE 21:18:51 10° E visible
26 May - 22:52:44 10° NW 22:57:10 63° SW 23:01:24 10° SSE visible
27 May - 00:36:57 10° W 00:38:14 11° WSW 00:39:31 10° WSW visible
27 May - 13:30:59 10° SSE 13:34:15 17° ESE 13:37:23 10° ENE daylight
27 May - 15:10:26 10° SSW 15:15:40 74° SE 15:20:29 10° NE daylight
27 May - 16:53:26 10° W 16:58:06 35° NNW 17:02:25 10° NE daylight
27 May - 18:37:40 10° NW 18:41:21 21° N 18:44:51 10° NE daylight
27 May - 20:20:50 10° NW 20:24:48 27° NNE 20:28:32 10° E visible
27 May - 22:02:58 10° NW 22:07:31 77° NE 22:11:48 10° SE visible
27 May - 23:45:43 10° WNW 23:49:01 21° WSW 23:52:12 10° SSW visible
28 May - 14:21:05 10° SSW 14:26:04 45° ESE 14:30:41 10° NE daylight
28 May - 16:03:09 10° WSW 16:08:09 49° NW 16:12:45 10° NE daylight
28 May - 17:47:15 10° WNW 17:51:10 23° NNW 17:54:52 10° NE daylight
28 May - 19:30:56 10° NW 19:34:39 22° NNE 19:38:11 10° ENE daylight
28 May - 21:13:16 10° NW 21:17:42 48° NE 21:21:53 10° ESE visible
28 May - 22:55:33 10° NW 22:59:38 37° WSW 23:03:34 10° S visible
29 May - 13:32:14 10° S 13:36:35 27° ESE 13:40:40 10° ENE daylight
29 May - 15:13:08 10° SW 15:18:19 75° NW 15:23:05 10° NE daylight
29 May - 16:56:46 10° W 17:01:02 28° NNW 17:05:03 10° NE daylight
29 May - 18:40:52 10° NW 18:44:27 21° N 18:47:52 10° NE daylight
29 May - 20:23:33 10° NW 20:27:45 34° NNE 20:31:42 10° E visible
29 May - 22:05:40 10° NW 22:10:07 66° SW 22:14:20 10° SSE visible
29 May - 23:49:37 10° W 23:51:13 12° WSW 23:52:48 10° SW visible
30 May - 12:44:11 10° SE 12:47:14 16° ESE 12:50:10 10° ENE daylight
30 May - 14:23:26 10° SSW 14:28:37 70° SE 14:33:23 10° NE daylight
30 May - 16:06:21 10° W 16:11:01 36° NNW 16:15:20 10° NE daylight
30 May - 17:50:35 10° NW 17:54:15 21° N 17:57:43 10° NE daylight
30 May - 19:33:47 10° NW 19:37:41 26° NNE 19:41:23 10° ENE daylight
30 May - 21:15:55 10° NW 21:20:26 74° NE 21:24:43 10° SE visible
30 May - 22:58:36 10° WNW 23:01:58 22° WSW 23:05:15 10° SSW visible
31 May - 13:34:07 10° SSW 13:39:02 42° ESE 13:43:34 10° NE daylight
31 May - 15:16:06 10° WSW 15:21:04 51° NW 15:25:40 10° NE daylight
31 May - 17:00:09 10° WNW 17:04:04 23° NNW 17:07:46 10° NE daylight
31 May - 18:43:52 10° NW 18:47:32 22° N 18:51:01 10° ENE daylight
31 May - 20:26:12 10° NW 20:30:36 46° NE 20:34:46 10° ESE visible
31 May - 22:08:28 10° NW 22:12:35 39° WSW 22:16:32 10° S visible
01 Jun - 12:45:20 10° S 12:49:33 25° ESE 12:53:31 10° ENE daylight
01 Jun - 14:26:06 10° SW 14:31:16 78° NW 14:36:01 10° NE daylight
01 Jun - 16:09:40 10° W 16:13:56 28° NNW 16:17:56 10° NE daylight
01 Jun - 17:53:47 10° NW 17:57:20 21° N 18:00:43 10° NE daylight
01 Jun - 19:36:30 10° NW 19:40:38 32° NNE 19:44:34 10° E daylight
01 Jun - 21:18:36 10° NW 21:23:03 70° SW 21:27:16 10° SSE visible
01 Jun - 23:02:20 10° W 23:04:12 13° WSW 23:06:01 10° SW visible
02 Jun - 11:57:24 10° SE 12:00:13 15° ESE 12:02:56 10° ENE daylight
02 Jun - 13:36:25 10° SSW 13:41:34 67° SE 13:46:17 10° NE daylight
02 Jun - 15:19:16 10° W 15:23:54 37° NNW 15:28:14 10° NE daylight
02 Jun - 17:03:29 10° WNW 17:07:08 21° N 17:10:35 10° NE daylight
02 Jun - 18:46:44 10° NW 18:50:35 25° NNE 18:54:14 10° ENE daylight
02 Jun - 20:28:51 10° NW 20:33:21 70° NE 20:37:36 10° SE visible
02 Jun - 22:11:29 10° WNW 22:14:56 23° WSW 22:18:18 10° SSW visible
03 Jun - 12:47:09 10° S 12:51:59 40° ESE 12:56:27 10° NE daylight
03 Jun - 14:29:01 10° WSW 14:34:00 53° NW 14:38:35 10° NE daylight
03 Jun - 16:13:03 10° WNW 16:16:57 23° NNW 16:20:38 10° NE daylight
03 Jun - 17:56:48 10° NW 18:00:25 22° N 18:03:51 10° ENE daylight
03 Jun - 19:39:10 10° NW 19:43:30 44° NE 19:47:37 10° ESE daylight
03 Jun - 21:21:23 10° NW 21:25:32 41° WSW 21:29:31 10° SSE visible
